{"data":{"norad_id":59133,"epoch":"2026-05-25T03:45:15.475104Z","epoch_age_seconds":54763,"freshness":"FRESH","line1":"1 59133U 24043AM  26145.15642911  .00012997  00000+0  29989-3 0  9998","line2":"2 59133  97.5575 289.2470 0006845 300.5013  59.5558 15.42670506123984","mean_motion":15.42670506,"eccentricity":0.0006845,"inclination_deg":97.5575,"raan_deg":289.247,"arg_perigee_deg":300.5013,"mean_anomaly_deg":59.5558,"bstar":0.00029989,"rev_number":12398,"period_min":93.344625077055,"perigee_km":433.56563678118,"apogee_km":442.89724517688,"semimajor_km":6816.368440979,"source":"CELESTRAK","updated_at":"2026-05-25T13:38:01.197482Z"}}